Regional Weather Roundup
Issued by NWS Newport/Morehead, NC

Current Version | Previous Version | Graphics & Text | Print | Product List | Glossary Off
Versions: 1 2 3 4 5 6 7 8 9 10 11 12 13 14 15 16 17 18 19 20 21 22 23 24 25 26 27 28 29 30 31 32 33 34 35 36 37 38 39 40 41 42 43 44 45 46 47 48 49 50

000
ASUS42 KMHX 270725
RWRMHX
WEATHER ROUNDUP FOR EASTERN NORTH CAROLINA
NATIONAL WEATHER SERVICE NEWPORT/MOREHEAD CITY NC
300 AM EDT THU APR 27 2017

NOTE: "FAIR" INDICATES FEW OR NO CLOUDS BELOW 12,000 FEET
WITH NO SIGNIFICANT WEATHER AND/OR OBSTRUCTIONS TO VISIBILITY

NCZ015>017-031-032-045>047-102-103-270800-
NORTH COAST

CITY           SKY/WX    TMP DP  RH WIND       PRES   REMARKS
EDENTON        CLEAR     67  65  90 CALM      29.86S
ELIZABETH CITY CLEAR     67  66  97 S8        29.85S
KITTY HAWK     PTSUNNY   68  68 100 CALM      29.85F
MANTEO         CLOUDY    68  65  92 SW10      29.87S

$$

NCZ045>047-081-094-103-104-270800-
CENTRAL COAST

CITY           SKY/WX    TMP DP  RH WIND       PRES   REMARKS
FRISCO         CLEAR     71  67  87 SW8       29.89S FOG

$$

NCZ095-097-098-100-101-270800-
SOUTHERN COAST

CITY           SKY/WX    TMP DP  RH WIND       PRES   REMARKS
BEAUFORT       CLEAR     69  67  93 SW8       29.89S
CEDAR ISLAND   NOT AVBL
JACKSONVILLE   CLEAR     66  62  87 SW7       29.87F
PINEY ISLAND   SUNNY    N/A N/A N/A S7        29.88F
WILMINGTON     CLEAR     67  63  87 SW6       29.89S


$$

NCZ011>013-027>030-043-044-078>080-089-090>093-098-270800-
COASTAL PLAIN

CITY           SKY/WX    TMP DP  RH WIND       PRES   REMARKS
AHOSKIE          N/A     64  63  97 S5        29.84S
CLINTON        CLEAR     65  60  82 CALM      29.88S
ELIZABETHTOWN  CLEAR     64  59  82 CALM      29.88S
GOLDSBORO      CLEAR     67  62  83 SW8       29.85R
GREENVILLE     CLEAR     66  63  88 SW6       29.88S
HAVELOCK       CLEAR     67  62  84 SW5       29.89S
KENANSVILLE    CLEAR     64  59  82 SW3       29.87S
KINSTON        CLEAR     66  59  77 CALM      29.87S
NEW BERN       CLEAR     65  64  97 S6        29.89R
RICHLANDS      CLEAR     63  60  90 SW6       29.89S
ROCKY MOUNT    CLEAR     66  63  90 S7        29.85S
WASHINGTON     CLEAR     66  61  85 SW5       29.87S
WHITEVILLE     CLEAR     60  58  93 CALM      29.88S

$$

AMZ130-135-150-152-154-156-158-170-250-252-270-ANZ085-086-088-633-658-670-270800-
MARINE OBSERVATIONS

STATION/POSITION TIME  TEMP    WIND        PRES    WAVE   SWELL
                       AIR SEA DIR/SP/G            HT/PER HT/PER
                 (UTC) (F)     (DEG/KT/KT) (MB)    (FT/S) (FT/S)
CHESAPEAKE LIGHT NOT AVBL
64 E VA BEACH    0650   59 56  190/  8/ 10 1011.7    5/10   5/10
DUCK             0700   68 59  200/  9/ 12 1010.5
2 E DUCK         0700      61                N/A     4/10   2/11
OREGON INLET     0700   69 68  200/ 12/ 13 1011.4
13E OREGON INLT  0648      59                N/A     4/ 9   5/ 9
HATTERAS CG      0700   70 69  220/  8/ 12 1011.8
DIAMOND BUOY     0650   76 76  230/ 19/ 23 1011.8    7/ 9   5/ 9
CAPE LOOKOUT     0700   70     220/  6/  8 1011.9
BEAUFORT LAB     0700   69 67  210/  4/  6 1011.2
30 SE NEW RVR IN 0708   71     220/ 10/ 14 1012.3
30 SE NEW RVR IN 0643      71                N/A     5/ 8   2/11
27 SE WRIGHTSVLE 0708   72 72  220/ 10/ 14 1011.6
5 SE WRIGHTSVLE  0608   71 70              1012.1
225 S CAPE HAT   0650   74 75  190/ 16/ 19 1014.4    6/ 9   3/ 9
41 SE CHARLESTON 0700   74 73  210/ 14/ 16 1011.9

$$




USA.gov is the U.S. government's official web portal to all federal, state and local government web resources and services.